Weather Roundup
Issued by NWS Chicago, IL

Home | Current Version | Previous Version | Graphics & Text | Print | Product List | Glossary On
Versions: 1 2 3 4 5 6 7 8 9 10 11 12 13 14 15 16 17 18 19 20 21 22 23 24 25 26 27 28 29 30 31 32 33 34 35 36 37 38 39 40 41 42 43 44 45 46 47 48 49 50
000
NZUS59 KLOT 231110
HRRLOT

CHICAGO AREA WEATHER ROUNDUP
NATIONAL WEATHER SERVICE CHICAGO/ROMEOVILLE IL
600 AM CDT SAT AUG 23 2014

NOTE: "FAIR" INDICATES FEW OR NO CLOUDS BELOW 12,000 FEET WITH NO
SIGNIFICANT WEATHER AND/OR OBSTRUCTIONS TO VISIBILITY.

* THESE STATIONS ARE NOT UNDER NWS QUALITY CONTROL. THEY ALSO MAY NOT
  REPORT WEATHER SUCH AS PRECIPITATION OR FOG.

ILZ005-006-012>014-019>023-231200-
NORTHEAST ILLINOIS

CITY           SKY/WX    TMP DP  RH WIND       PRES   REMARKS
OHARE          CLOUDY    73  69  87 E5        29.97S FOG
MIDWAY         MOCLDY    76  73  91 CALM      29.96S FOG
AURORA         MOCLDY    72  69  90 CALM      29.97S FOG
LANSING*       FOG       68  68  99 CALM      29.97F VSB 3/4
JOLIET*        CLOUDY    71  70  95 CALM      29.97F FOG
WAUKEGAN       FOG       70  69  97 NE3       29.97F VSB 1/4
DUPAGE AIRPORT FOG       73  72  96 CALM      29.97R VSB 1/8
WHEELING       CLOUDY    73  71  93 CALM      29.99R FOG
KANKAKEE*      FOG       68  68  99 E3        29.97F VSB 1
MORRIS*        PTCLDY    73  73 100 CALM      29.96S FOG
LEWIS AIRPORT* CLOUDY    71  71 100 CALM      29.98R FOG
NORTHERLY IS     N/A     72  71  97 N2          N/A
$$

WIZ051-052-058>065-066-070>072-231200-
SOUTHEAST WISCONSIN

CITY           SKY/WX    TMP DP  RH WIND       PRES   REMARKS
MILWAUKEE      FOG       69  68  96 CALM      29.98F VSB 1/2
KENOSHA*       FOG       70  70 100 CALM      29.98F VSB 1/2
RACINE*        FOG       70  69  97 CALM      30.00S VSB 1/4
BURLINGTON     FOG       69  69 100 E3        29.98S VSB 3/4
WAUKESHA       FOG       68  66  94 CALM      30.00S VSB 1/4
WEST BEND      FOG       68  64  88 E3        30.00S VSB 1/4
$$

INZ001>003-010>013-019-020-231200-
NORTHWEST INDIANA

CITY           SKY/WX    TMP DP  RH WIND       PRES   REMARKS
GARY*          PTCLDY    70  70 100 CALM      29.98S FOG
MICHIGAN CITY* NOT AVBL
RENSSELAER*    NOT AVBL
VALPARAISO     FOG       68  66  93 E3        29.99S VSB 1/2
$$

LMZ740>746-231200-
SOUTHERN LAKE MICHIGAN

STATION/POSITION TIME  SKY/WX   TEMP WIND        PRES    VSBY
                                AIR  DIR/SP/G
                 (UTC)          (F)  (DEG/KT/KT) (MB)    (MI)
HARRISON CRIB    1100            72   40/  5/  5   N/A
BURNHAM HARBOR   1100            72   20/  3/  4   N/A
CALUMET HARBOR   1100            72  330/  2/  3 1013.6F
BURNS HARBOR     NOT AVBL
MICHIGAN CITY    1100            73  130/  3/  4   N/A
$$

ABBREVIATIONS USED IN REMARKS
   TC - TEMPERATURE IN CELSIUS
  WCI - WIND CHILL INDEX
   HX - HEAT INDEX
  VSB - VISIBILITY
$$



USA.gov is the U.S. government's official web portal to all federal, state and local government web resources and services.